This site uses a module created by best online poker sites.

BSB police report ending November 5, 2018

"11/02/2018","00:01","218CR0028266","SEXUAL ASSAULT","SEXUAL ASSAULT","************","",""
"11/02/2018","00:17","218CR0028267","ATL","ATL","24 E COPPER","",""
"11/02/2018","00:39","218CR0028268","DISTURBANCE","DISTURBANCE","541 S MONTANA SPUD MCGEES","",""
"11/02/2018","00:42","218CR0028269","DUI","AGGRAVATED DUI","2112 GRAND AVE","ARREST(s) MADE",""
"11/02/2018","00:47","218CR0028270","DISTURBANCE","CRIMINAL CONTEMPT","541 S MAIN SPUD MCGEES","ARREST(s) MADE",""
"11/02/2018","01:53","218CR0028271","ILLEGAL SHOOTING","ILLEGAL SHOOTING","31 E GAGNON ST","",""
"11/02/2018","03:44","218CR0028272","MEDICAL - EMERGENCY","MEDICAL - EMERGENCY","812 SILVERBOW HOMES","",""
"11/02/2018","04:11","218CR0028273","SUSPICIOUS ACTIVITY","SUSPICIOUS ACTIVITY","2925 HANSEN RD","",""
"11/02/2018","04:35","218CR0028274","OPEN BUILDING","OPEN BUILDING","2937 HANSEN RD","",""
"11/02/2018","05:29","218CR0028275","SUSPICIOUS ACTIVITY","CRIMINAL CONTEMPT","CONTINENTAL DR AND BAYARD ST","ARREST(s) MADE",""
"11/02/2018","06:35","218CR0028276","THEFT","THEFT, SHOPLIFT","531 S MONTANA","",""
"11/02/2018","07:18","218CR0028277","ANIMAL COMPLAINT","ANIMAL COMPLAINT","BARTLETT // ASPEN LOOP","",""
"11/02/2018","07:52","218CR0028278","T/S","OPERATING WITHOUT CURRENT REGI","ELIZABETH WARREN AND BURNING T","",""
"11/02/2018","07:54","218CR0028279","T/S","T/S","DAHLGREN AND AMHERST","",""
"11/02/2018","08:04","218CR0028280","SUSPICIOUS ACTIVITY","SUSPICIOUS ACTIVITY","3703 HARRISON AVE","",""
"11/02/2018","08:19","218CR0028281","BUSINESS CHECK","BUSINESS CHECK","58 W PARK ST PARKING GARAGE","",""
"11/02/2018","08:21","218CR0028282","W/PRISONER","W/PRISONER","812 E 2ND ST","",""
"11/02/2018","08:22","218CR0028283","CIVIL PAPER SERVICE","CIVIL PAPER SERVICE","4810 S ARIZONA ST","",""
"11/02/2018","08:31","218CR0028284","BUSINESS CHECK","BUSINESS CHECK","58 W PARK ST PARKING GARAGE","",""
"11/02/2018","08:35","218CR0028285","CIVIL PAPER SERVICE","CIVIL PAPER SERVICE","2124 OREGON","",""
"11/02/2018","08:51","218CR0028286","CIVIL PAPER SERVICE","CIVIL PAPER SERVICE","10 GLADSTONE TERRACE","",""
"11/02/2018","09:24","218CR0028287","THEFT","THEFT, ALL OTHERS","116033 FLEECER RD","",""
"11/02/2018","09:31","218CR0028289","CIVIL PAPER SERVICE","CIVIL PAPER SERVICE","2825 FARRAGUT #D202","",""
"11/02/2018","09:33","218CR0028288","MEDICAL - EMERGENCY","MEDICAL - EMERGENCY","317 GRANITE MTN RD","",""
"11/02/2018","09:35","218CR0028290","LED BUSINESS","LED BUSINESS","24 E COPPER","",""
"11/02/2018","09:39","218CR0028291","CIVIL PAPER SERVICE","CIVIL PAPER SERVICE","2545 AMHERST","",""
"11/02/2018","09:46","218CR0028292","LED BUSINESS","LED BUSINESS","155 W GRANITE ST","",""
"11/02/2018","09:53","218CR0028293","WELFARE CHECK","WELFARE CHECK","1736 LONGFELLOW #16","",""
"11/02/2018","09:59","218CR0028294","WELFARE CHECK","WELFARE CHECK","633 S IDAHO","",""
"11/02/2018","10:32","218CR0028295","SUSPICIOUS ACTIVITY","SUSPICIOUS ACTIVITY","1245 FARRELL ST","",""
"11/02/2018","10:32","218CR0028296","UNKNOWN PROBLEM","UNKNOWN PROBLEM","200 BLK MISSOULA AVE","",""
"11/02/2018","10:40","218CR0028297","CIVIL PAPER SERVICE","CIVIL PAPER SERVICE","400 S CLARK","",""
"11/02/2018","10:57","218CR0028298","T/S","T/S","DEWEY AND HILL","",""
"11/02/2018","11:07","218CR0028299","DISTURBANCE","DISTURBANCE","1221 FARRELL","",""
"11/02/2018","11:19","218CR0028300","ATL","ATL","HIGH ALTITUDE SPEED SKATING CT","",""
"11/02/2018","11:20","218CR0028301","HARASSMENT","HARASSMENT","1631 ELM ST","",""
"11/02/2018","11:56","218CR0028302","T/S","T/S","2300 BLK CONTINENTAL DR","",""
"11/02/2018","12:09","218CR0028303","FIRE- GAS ODOR","FIRE- GAS ODOR","120 W GRANITE","",""
"11/02/2018","12:14","218CR0028304","CIVIL STANDBY","CIVIL STANDBY","","",""
"11/02/2018","12:16","218CR0028305","VEHICLE INSPECTION","VEHICLE INSPECTION","225 N ALASKA","",""
"11/02/2018","12:20","218CR0028306","TRAFFIC HAZARD","TRAFFIC HAZARD","GRAND AND HARRISON","",""
"11/02/2018","12:28","218CR0028307","PARKING COMPLAINT","PARKING COMPLAINT","332 W BROADWAY","",""
"11/02/2018","12:39","218CR0028308","DRUGS","DRUGS","************","",""
"11/02/2018","12:40","218CR0028309","LED BUSINESS","LED BUSINESS","BSB GUN RANGE","",""
"11/02/2018","12:49","218CR0028310","MEDICAL - EMERGENCY","MEDICAL - EMERGENCY","26 S ROCKER RD","",""
"11/02/2018","13:23","218CR0028311","ALARM - BURGLARY","ALARM - BURGLARY","************","",""
"11/02/2018","13:27","218CR0028312","ALARM - BURGLARY","ALARM - BURGLARY","************","",""
"11/02/2018","13:49","218CR0028313","THEFT","THEFT, ALL OTHERS","1205 S MONTANA","",""
"11/02/2018","13:53","218CR0028314","SUSPICIOUS ACTIVITY","SUSPICIOUS ACTIVITY","100 GARDENS WAY","",""
"11/02/2018","14:21","218CR0028315","ALL OTHER","ALL OTHER","FLORAL AND SHERIDAN AVE","",""
"11/02/2018","14:38","218CR0028316","ALARM - FIRE","ALARM - FIRE","120 W GRANITE","",""
"11/02/2018","14:46","218CR0028317","ALL OTHER","ALL OTHER","2018 PORTER","",""
"11/02/2018","14:53","218CR0028318","ALL OTHER","ALL OTHER","2500 MASSACHUSETTS AVE","",""
"11/02/2018","14:57","218CR0028319","CIVIL PAPER SERVICE","CRIMINAL CONTEMPT","2545 AMHERST","ARREST(s) MADE",""
"11/02/2018","15:09","218CR0028320","CIVIL STANDBY","CIVIL STANDBY","225 N ALASKA","",""
"11/02/2018","15:35","218CR0028321","THEFT","THEFT, SHOPLIFT","3901 HARRISON","",""
"11/02/2018","15:38","218CR0028322","BUSINESS CHECK","BUSINESS CHECK","58 W PARK","",""
"11/02/2018","15:47","218CR0028323","HIT AND RUN","CRIMINAL ENDANGERMENT","500 S EMMETT","",""
"11/02/2018","15:55","218CR0028324","FRAUD","FRAUD","225 N ALASKA","",""
"11/02/2018","15:57","218CR0028325","WANTED PERSON","WANTED PERSON","************","",""
"11/02/2018","16:02","218CR0028326","PARKING COMPLAINT","PARKING COMPLAINT","502 E FRONT ST IN ALLEY","",""
"11/02/2018","16:08","218CR0028327","MEDICAL - EMERGENCY","MEDICAL - EMERGENCY","2825 FARRAGUT APT E103","",""
"11/02/2018","16:08","218CR0028328","DISTURBANCE-NOISE","DISTURBANCE-NOISE","207 W PARK ST #5","",""
"11/02/2018","16:14","218CR0028329","THEFT","CRIMINAL TRESPASS TO PROPERTY","528 W QUARTZ","",""
"11/02/2018","16:16","218CR0028330","LOST OR STOLEN PROPERTY","THEFT, ALL OTHERS","39 W DALY ST","",""
"11/02/2018","16:28","218CR0028331","WANTED PERSON","WANTED PERSON","************","",""
"11/02/2018","16:36","218CR0028332","THEFT","THEFT, SHOPLIFT","3901 HARRISON","ARREST(s) MADE",""
"11/02/2018","16:58","218CR0028333","LED BUSINESS","LED BUSINESS","936 NEVADA","",""
"11/02/2018","17:01","218CR0028334","FRAUD","FRAUD","225 N ALASKA","",""
"11/02/2018","17:36","218CR0028335","HIT AND RUN","HIT AND RUN","3500 HARRISON AVE","",""
"11/02/2018","17:58","218CR0028336","ATL","ATL","4075 WYNNE AVE","",""
"11/02/2018","18:17","218CR0028337","ALL OTHER","ALL OTHER","1620 N MAIN","",""
"11/02/2018","18:19","218CR0028338","UNWANTED PERSON","UNWANTED PERSON","************","",""
"11/02/2018","18:55","218CR0028339","ALL OTHER","ALL OTHER","472 ELKHORN","",""
"11/02/2018","18:58","218CR0028340","PARKING COMPLAINT","PARKING COMPLAINT","414 W GRANITE ST","",""
"11/02/2018","19:02","218CR0028341","SUSPICIOUS ACTIVITY","SUSPICIOUS ACTIVITY","1700 CIVIC CENTER RD","",""
"11/02/2018","19:59","218CR0028343","MEDICAL - EMERGENCY","MEDICAL - EMERGENCY","910 EVANS #H2","",""
"11/02/2018","20:16","218CR0028344","MEDICAL - EMERGENCY","MEDICAL - EMERGENCY","2900 HARRISON AVE","",""
"11/02/2018","20:23","218CR0028345","ALL OTHER","ALL OTHER","1504 ELM","",""
"11/02/2018","20:34","218CR0028346","FIRE - STRUCTURE","FIRE - STRUCTURE","1012 MICHIGAN","",""
"11/02/2018","21:00","218CR0028347","WELFARE CHECK","WELFARE CHECK","549 S MAIN","",""
"11/02/2018","21:17","218CR0028348","UNKNOWN PROBLEM","UNKNOWN PROBLEM","220 N WYOMING","",""
"11/02/2018","21:21","218CR0028349","DISTURBANCE-NOISE","DISTURBANCE-NOISE","635 W GRANITE","",""
"11/02/2018","22:07","218CR0028350","THEFT","BURGLARY, RESIDENCE","1601 GAYLORD","",""
"11/02/2018","22:08","218CR0028351","BUSINESS CHECK","BUSINESS CHECK","58 W PARK ST PARKING GARAGE","",""
"11/02/2018","22:15","218CR0028352","SUSPICIOUS ACTIVITY","SUSPICIOUS ACTIVITY","1756 ADAMS","",""
"11/02/2018","22:20","218CR0028353","T/S","NO LIABILITY INSURANCE IN EFF.","PLATINUM AND ARIZONA","",""
"11/02/2018","22:29","218CR0028354","SUSPICIOUS ACTIVITY","SUSPICIOUS ACTIVITY","GRAND AND HAYES","",""
"11/02/2018","22:35","218CR0028355","SUSPICIOUS ACTIVITY","SUSPICIOUS ACTIVITY","10 BLK SUNVIEW TERRACE","",""
"11/02/2018","22:45","218CR0028356","MEDICAL - EMERGENCY","MEDICAL - EMERGENCY","","",""
"11/02/2018","22:45","218CR0028357","MEDICAL - EMERGENCY","ASSAULT WITH WEAPON","2905 MOULTON","",""
"11/02/2018","23:03","218CR0028358","DISTURBANCE-NOISE","DISTURBANCE-NOISE","635 W GRANITE","",""
"11/02/2018","23:14","218CR0028359","DISTURBANCE","DISTURBANCE","3700 HARRISON MAGIC DIAMOND","",""
"11/02/2018","23:26","218CR0028360","SUSPICIOUS ACTIVITY","SUSPICIOUS ACTIVITY","2800 BLK KOSSUTH","",""
"11/02/2018","23:29","218CR0028361","DISTURBANCE-NOISE","DISTURBANCE-NOISE","910 EVANS APT C3","",""
"11/02/2018","23:52","218CR0028362","DISTURBANCE-NOISE","DISTURBANCE-NOISE","1615 N MAIN","",""
"11/03/2018","01:54","218CR0028363","DISTURBANCE","DISTURBANCE","433 W IRON","",""
"11/03/2018","02:04","218CR0028364","DISTURBANCE-NOISE","DISTURBANCE-NOISE","1125 S MAIN ROSALIE MANOR","",""
"11/03/2018","03:49","218CR0028365","SUSPICIOUS ACTIVITY","SUSPICIOUS ACTIVITY","1900 2000 BLK WALNUT","",""
"11/03/2018","04:06","218CR0028366","MEDICAL - EMERGENCY","MEDICAL - EMERGENCY","3470 RIDGEWAY","",""
"11/03/2018","04:28","218CR0028367","THEFT","THEFT, SHOPLIFT","1000 GRIZZLY TR TOWN PUMP","",""
"11/03/2018","05:00","218CR0028368","MEDICAL - EMERGENCY","MEDICAL - EMERGENCY","","",""
"11/03/2018","05:27","218CR0028369","SUSPICIOUS ACTIVITY","SUSPICIOUS ACTIVITY","969 N MAIN ST","",""
"11/03/2018","06:03","218CR0028370","ALARM - BURGLARY","ALARM - BURGLARY","************","",""
"11/03/2018","06:13","218CR0028371","MEDICAL - EMERGENCY","MEDICAL - EMERGENCY","1300 W PARK","",""
"11/03/2018","07:48","218CR0028372","BUSINESS CHECK","BUSINESS CHECK","58 W PARK","",""
"11/03/2018","08:08","218CR0028373","BUSINESS CHECK","BUSINESS CHECK","58 W PARK","",""
"11/03/2018","09:00","218CR0028374","HIT AND RUN","HIT AND RUN, UNATTENDED VEHICL","226 W SILVER APT 19","",""
"11/03/2018","09:01","218CR0028375","CIVIL PAPER SERVICE","CIVIL PAPER SERVICE","4810 S ARIZONA","",""
"11/03/2018","09:13","218CR0028376","T/S","T/S","ELIZABETH WARREN AND FORD WY","",""
"11/03/2018","09:18","218CR0028377","THEFT","THEFT FROM MOTOR VEHICLE","4655 HARRISON AVE","",""
"11/03/2018","09:23","218CR0028378","STOLEN VEHICLE","BURGLARY, NON-RESIDENCE","1301 UTAH AVE","",""
"11/03/2018","09:56","218CR0028379","UNWANTED PERSON","UNWANTED PERSON","************","",""
"11/03/2018","10:07","218CR0028380","ACCIDENT","ACCIDENT","2324 WALNUT","",""
"11/03/2018","10:33","218CR0028381","MEDICAL - EMERGENCY","MEDICAL - EMERGENCY","220 N WYOMING RM 108","",""
"11/03/2018","10:39","218CR0028382","VANDALISM/CRIMINAL MISCHIEF","CRIMINAL MISCHIEF","120 N MONTANA 3B","",""
"11/03/2018","10:55","218CR0028384","THEFT","THEFT, ALL OTHERS","135 BOVINE WAY","",""
"11/03/2018","11:17","218CR0028386","UNWANTED PERSON","UNWANTED PERSON","************","",""
"11/03/2018","11:21","218CR0028387","FOUND PROPERTY","FOUND PROPERTY","************","",""
"11/03/2018","11:42","218CR0028388","ALARM - BURGLARY","ALARM - BURGLARY","************","",""
"11/03/2018","11:44","218CR0028389","THEFT","THEFT","531 S MONTANA","",""
"11/03/2018","12:01","218CR0028390","MEDICAL - EMERGENCY","MEDICAL - EMERGENCY","1300 W PARK","",""
"11/03/2018","12:03","218CR0028391","UNWANTED PERSON","UNWANTED PERSON","************","",""
"11/03/2018","12:27","218CR0028392","ACCIDENT","ACCIDENT","1322 SAGE ST","",""
"11/03/2018","12:43","218CR0028393","T/S","DRIVE WHILE SUSP. OR REVOKED","MONTANA AND GOLD","",""
"11/03/2018","13:10","218CR0028394","HARASSMENT","HARASSMENT","932 S UTAH","",""
"11/03/2018","13:13","218CR0028395","TRAFFIC HAZARD","TRAFFIC HAZARD","1800 BLK ADAMS","",""
"11/03/2018","14:35","218CR0028396","ACCIDENT","ACCIDENT","1300 BLOCK OF PLATINUM","",""
"11/03/2018","15:10","218CR0028397","ALARM-DURESS","ALARM-DURESS","************","",""
"11/03/2018","15:10","218CR0028398","T/S","T/S","1921 THOMAS AVE","",""
"11/03/2018","15:24","218CR0028399","HARASSMENT","HARASSMENT","2700 HARRISON","",""
"11/03/2018","15:33","218CR0028400","THEFT","THEFT","222 E PARK","",""
"11/03/2018","15:42","218CR0028401","MEDICAL - EMERGENCY","MEDICAL - EMERGENCY","3153 WYNNE","",""
"11/03/2018","16:16","218CR0028402","DISTURBANCE","DISTURBANCE","58 W PARK ST PARKING GARAGE","",""
"11/03/2018","16:24","218CR0028403","DISTURBANCE","PFMA - WEAPON","3220 HANNIBAL","",""
"11/03/2018","16:30","218CR0028404","WELFARE CHECK","WELFARE CHECK","1027 E FRONT","",""
"11/03/2018","16:36","218CR0028405","ALL OTHER","ALL OTHER","22 W GALENA RICHEST HILL CASIN","",""
"11/03/2018","17:02","218CR0028406","ALL OTHER","ALL OTHER","910 EVANS","",""
"11/03/2018","17:14","218CR0028407","ALL OTHER","ALL OTHER","540 S MAIN ST","",""
"11/03/2018","17:16","218CR0028408","MEDICAL - EMERGENCY","MEDICAL - EMERGENCY","1921 LAFAYETTE","",""
"11/03/2018","17:26","218CR0028409","UNKNOWN PROBLEM","UNKNOWN PROBLEM","1300 BLK CASEY ST","",""
"11/03/2018","17:39","218CR0028410","ALL OTHER","ALL OTHER","25 E GRANITE #310","",""
"11/03/2018","18:23","218CR0028411","ALL OTHER","ALL OTHER","531 S MONTANA","",""
"11/03/2018","18:23","218CR0028412","ALL OTHER","ALL OTHER","531 S MONTANA","",""
"11/03/2018","18:55","218CR0028413","ALL OTHER","ALL OTHER","102 SILVER BOW HOMES","",""
"11/03/2018","18:56","218CR0028414","PARKING COMPLAINT","PARKING COMPLAINT","1315 S MONTANA ST","",""
"11/03/2018","19:19","218CR0028415","ALL OTHER","ALL OTHER","115 LAUREL","",""
"11/03/2018","19:22","218CR0028416","VANDALISM/CRIMINAL MISCHIEF","VANDALISM/CRIMINAL MISCHIEF","1647 B ST","",""
"11/03/2018","20:43","218CR0028417","T/S","T/S","TX AND SHIELD","",""
"11/03/2018","20:48","218CR0028418","TRAFFIC HAZARD","TRAFFIC HAZARD","126 RAMPART DR","",""
"11/03/2018","20:52","218CR0028419","TRAFFIC HAZARD","TRAFFIC HAZARD","","",""
"11/03/2018","21:06","218CR0028420","DISTURBANCE","DISTURBANCE","320 W BROADWAY #C","",""
"11/03/2018","21:27","218CR0028421","DISTURBANCE-NOISE","DISTURBANCE-NOISE","1015 W PORPHRY","",""
"11/03/2018","21:36","218CR0028422","THEFT","THEFT, SHOPLIFT","3901 HARRISON AVE","",""
"11/03/2018","21:44","218CR0028423","ASSAULT","PFMA - MINOR INJ/PHYSICAL CONT","4002 HANCOCK","",""
"11/03/2018","21:58","218CR0028424","UNWANTED PERSON","UNWANTED PERSON","************","",""
"11/03/2018","22:32","218CR0028425","SUSPICIOUS ACTIVITY","SUSPICIOUS ACTIVITY","1955 DEWEY BLVD","",""
"11/03/2018","23:15","218CR0028426","THEFT","THEFT FROM MOTOR VEHICLE","122005 NISSLER RD","",""
"11/03/2018","23:24","218CR0028427","SUSPICIOUS ACTIVITY","SUSPICIOUS ACTIVITY","2038 WALNUT","",""
"11/03/2018","23:27","218CR0028428","ACCIDENT","ACCIDENT","900 BLK OF COPPER","",""
"11/03/2018","23:47","218CR0028429","SUSPICIOUS ACTIVITY","SUSPICIOUS ACTIVITY","GALENA RICHEST HILL CASINO","",""
"11/04/2018","00:02","218CR0028430","HARASSMENT","HARASSMENT","120 1/2 N IDAHO","",""
"11/04/2018","00:51","218CR0028431","THEFT","BURGLARY, RESIDENCE","2290 COBBAN #3","",""
"11/04/2018","01:01","218CR0028432","SUSPICIOUS ACTIVITY","SUSPICIOUS ACTIVITY","2100 CONTINENTAL","",""
"11/04/2018","01:09","218CR0028433","SUSPICIOUS ACTIVITY","SUSPICIOUS ACTIVITY","HOLLAND AND MONTANA","",""
"11/04/2018","01:11","218CR0028434","MEDICAL - EMERGENCY","MEDICAL - EMERGENCY","436 S MAIN ST APT 408","",""
"11/04/2018","01:18","218CR0028435","SUSPICIOUS ACTIVITY","SUSPICIOUS ACTIVITY","531 1/2 S DAKOTA","",""
"11/04/2018","01:26","218CR0028436","THEFT","THEFT","225 N ALASKA","",""
"11/04/2018","01:41","218CR0028437","SUSPICIOUS ACTIVITY","SUSPICIOUS ACTIVITY","835 9TH ST","",""
"11/04/2018","02:08","218CR0028438","ALL OTHER","CRIMINAL TRESPASS TO PROPERTY","735 13TH ST","ARREST(s) MADE",""
"11/04/2018","02:34","218CR0028439","HAZ MAT","HAZ MAT","ROCKER TOWN PUMP","",""
"11/04/2018","02:48","218CR0028440","THEFT","THEFT, ALL OTHERS","2290 COBBAN ST #3","",""
"11/04/2018","03:08","218CR0028441","ACCIDENT - INJURY","ACCIDENT - INJURY","4100 EAST LAKE STREET","",""
"11/04/2018","04:40","218CR0028442","ALL OTHER","ALL OTHER","100 GARDENS WAY #149","",""
"11/04/2018","05:03","218CR0028443","SUSPICIOUS ACTIVITY","SUSPICIOUS ACTIVITY","969 N MAIN ST","",""
"11/04/2018","06:17","218CR0028444","UNWANTED PERSON","UNWANTED PERSON","************","",""
"11/04/2018","06:24","218CR0028445","FIRE - STRUCTURE","FIRE - STRUCTURE","108 MULLIN ST","",""
"11/04/2018","06:42","218CR0028446","MEDICAL - EMERGENCY","MEDICAL - EMERGENCY","43 TRANQUILITY LANE","",""
"11/04/2018","07:18","218CR0028447","THEFT","THEFT FROM MOTOR VEHICLE","3125 QUINCY ST","",""
"11/04/2018","07:22","218CR0028448","MEDICAL - ASSIST","MEDICAL - ASSIST","************","",""
"11/04/2018","08:07","218CR0028449","CIVIL PAPER SERVICE","CIVIL PAPER SERVICE","2825 FARRAGUT AVE APT D202","",""
"11/04/2018","08:11","218CR0028450","BUSINESS CHECK","BUSINESS CHECK","58 W PARK","",""
"11/04/2018","08:34","218CR0028451","CIVIL PAPER SERVICE","CIVIL PAPER SERVICE","815 13TH ST","",""
"11/04/2018","08:39","218CR0028452","THEFT","THEFT FROM MOTOR VEHICLE","ECONO LODGE 122005 NISSLER RD","",""
"11/04/2018","08:41","218CR0028453","CIVIL PAPER SERVICE","CIVIL PAPER SERVICE","208 OHIO","",""
"11/04/2018","08:46","218CR0028454","ASSIST OTHER AGENCY","ASSIST OTHER AGENCY","I90 EB MM236","",""
"11/04/2018","09:05","218CR0028455","VANDALISM/CRIMINAL MISCHIEF","VANDALISM/CRIMINAL MISCHIEF","2921 BUSCH ST","",""
"11/04/2018","09:07","218CR0028456","ALARM - BURGLARY","ALARM - BURGLARY","************","",""
"11/04/2018","11:27","218CR0028457","SEXUAL ASSAULT","SEXUAL ASSAULT","************","",""
"11/04/2018","11:54","218CR0028458","TRAFFIC HAZARD","TRAFFIC HAZARD","36 E CENTER","",""
"11/04/2018","11:59","218CR0028459","SUSPICIOUS ACTIVITY","SUSPICIOUS ACTIVITY","FRONT AND HARRISON","",""
"11/04/2018","12:16","218CR0028460","ACCIDENT","ACCIDENT","2700 BLK HARRISON AVE","",""
"11/04/2018","12:19","218CR0028461","BUSINESS CHECK","BUSINESS CHECK","531 S MONTANA","",""
"11/04/2018","12:38","218CR0028462","DISTURBANCE","DISTURBANCE","1919 S ARIZONA","",""
"11/04/2018","12:39","218CR0028463","SUSPICIOUS ACTIVITY","SUSPICIOUS ACTIVITY","BUSCH AND GILMAN","",""
"11/04/2018","12:44","218CR0028464","BURGLARY","THEFT OF VEHICLE PARTS/ACCESSO","3938 IRIS RIDGE","",""
"11/04/2018","12:46","218CR0028465","ASSAULT","ASSAULT","************","",""
"11/04/2018","12:55","218CR0028466","SUICIDE ATTEMPT/THREAT","SUICIDE ATTEMPT/THREAT","************","",""
"11/04/2018","13:21","218CR0028467","CIVIL PAPER SERVICE","CIVIL PAPER SERVICE","665 S WASHINGTON","",""
"11/04/2018","13:28","218CR0028468","THEFT","THEFT FROM MOTOR VEHICLE","2706 NETTIE","",""
"11/04/2018","13:38","218CR0028469","UNWANTED PERSON","UNWANTED PERSON","************","",""
"11/04/2018","13:44","218CR0028470","WELFARE CHECK","WELFARE CHECK","831 W ZARELDA ST","",""
"11/04/2018","14:26","218CR0028471","T/S","OPERATING WITHOUT CURRENT REGI","PARK AND ALABAMA","",""
"11/04/2018","14:41","218CR0028472","ACCIDENT- INJURY(MHP)","ACCIDENT- INJURY(MHP)","1059 CAMCREEK RD","",""
"11/04/2018","14:48","218CR0028473","ALL OTHER","ALL OTHER","MINERS HOTEL 53 W PARK","",""
"11/04/2018","14:49","218CR0028474","THEFT","THEFT","418 W QUARTZ","",""
"11/04/2018","15:01","218CR0028475","UNWANTED PERSON","POSSESSION OF DANGEROUS DRUGS","531 S MONTANA","ARREST(s) MADE",""
"11/04/2018","15:22","218CR0028476","ACCIDENT","DUI - (REFUSAL)","PARK AND EXCLESIOR","ARREST(s) MADE",""
"11/04/2018","15:38","218CR0028477","BURGLARY","BURGLARY, RESIDENCE","100 LAUREL RD","",""
"11/04/2018","15:44","218CR0028478","JUVENILE MISC","JUVENILE MISC","************","",""
"11/04/2018","15:57","218CR0028479","FRAUD","FORGERY/COUNTERFEIT","310 W FRONT","",""
"11/04/2018","16:34","218CR0028480","UNKNOWN PROBLEM","UNKNOWN PROBLEM","1811 PORTER AVE","",""
"11/04/2018","17:05","218CR0028481","FOUND PROPERTY","FOUND PROPERTY","************","",""
"11/04/2018","17:41","218CR0028482","SUSPICIOUS ACTIVITY","SUSPICIOUS ACTIVITY","2929 JOSEPHINE","",""
"11/04/2018","18:09","218CR0028484","ALL OTHER","ALL OTHER","BERKELEY PIT VIEWING STAND","",""
"11/04/2018","18:13","218CR0028485","HARASSMENT","HARASSMENT","305 S OHIO","",""
"11/04/2018","18:32","218CR0028486","SUSPICIOUS ACTIVITY","SUSPICIOUS ACTIVITY","HOLMES AND HILL","",""
"11/04/2018","18:54","218CR0028487","THEFT","THEFT, ALL OTHERS","1900 S MONTANA","",""
"11/04/2018","18:58","218CR0028488","LED BUSINESS","LED BUSINESS","ST JAMES ER","",""
"11/04/2018","19:01","218CR0028489","ALL OTHER","ALL OTHER","246 E MERCURY","",""
"11/04/2018","19:06","218CR0028490","HARASSMENT","HARASSMENT","3200 DEXTER","",""
"11/04/2018","20:00","218CR0028491","SUSPICIOUS ACTIVITY","SUSPICIOUS ACTIVITY","207 E PACIFIC","",""
"11/04/2018","20:11","218CR0028492","SUSPICIOUS ACTIVITY","SUSPICIOUS ACTIVITY","ADAMS ST AND FARRELL ST","",""
"11/04/2018","20:15","218CR0028493","ANIMAL COMPLAINT","ANIMAL COMPLAINT","2647 GOODWIN ST","",""
"11/04/2018","20:18","218CR0028494","T/S","SPEEDING","2900 BLK HARRISON AVE","",""
"11/04/2018","21:08","218CR0028495","MEDICAL - EMERGENCY","MEDICAL - EMERGENCY","721 UTAH ALANO CLUB","",""
"11/04/2018","21:12","218CR0028496","DISTURBANCE","DISTURBANCE","2031 ABERDEEN","",""
"11/04/2018","21:38","218CR0028497","MEDICAL - EMERGENCY","MEDICAL - EMERGENCY","3116 PAXSON","",""
"11/04/2018","21:58","218CR0028498","THEFT","THEFT, ALL OTHERS","1370 HARRISON","",""
"11/04/2018","22:13","218CR0028499","THEFT","THEFT, ALL OTHERS","2201 WALL","",""
"11/04/2018","22:18","218CR0028500","T/S","SPEEDING","CHULA AND ROWE RD","",""
"11/04/2018","22:42","218CR0028501","T/S","T/S","OTTAWA ST AND GLADSTONE ST","",""
"11/04/2018","23:16","218CR0028502","T/S","SPEEDING","2821 LEXINGTON AVE","",""
"11/04/2018","23:17","218CR0028503","ACCIDENT","ACCIDENT","1716 HARRISON AVE","",""
"11/04/2018","23:32","218CR0028504","ATL","ATL","2720 PINE ST","",""
"11/04/2018","23:46","218CR0028505","WELFARE CHECK","WELFARE CHECK","205 NEVERSWEAT","",""
"11/04/2018","23:47","218CR0028506","T/S","T/S","HOWARD AND AMHERST","",""
"11/05/2018","00:05","218CR0028507","MEDICAL - EMERGENCY","MEDICAL - EMERGENCY","1111 SILVER BOW HOMES","",""
"11/05/2018","00:12","218CR0028508","SUSPICIOUS ACTIVITY","SUSPICIOUS ACTIVITY","1960 HARRISON AVE TACO JOHNS","",""
"11/05/2018","00:15","218CR0028509","ALARM - BURGLARY","ALARM - BURGLARY","************","",""
"11/05/2018","00:35","218CR0028510","SUSPICIOUS ACTIVITY","SUSPICIOUS ACTIVITY","1814 ADAMS","",""
"11/05/2018","00:51","218CR0028512","SUSPICIOUS ACTIVITY","SUSPICIOUS ACTIVITY","LAFAYETTE AND ELM","",""
"11/05/2018","00:51","218CR0028511","SUSPICIOUS ACTIVITY","SUSPICIOUS ACTIVITY","GRAND AND HARRISON","",""
"11/05/2018","00:57","218CR0028513","T/S","T/S","ADAM AND FARRELL","",""
"11/05/2018","01:15","218CR0028514","BUSINESS CHECK","BUSINESS CHECK","531 S MONTANA","",""
"11/05/2018","02:05","218CR0028515","SUSPICIOUS ACTIVITY","SUSPICIOUS ACTIVITY","2ND ST AND UTAH AVE","",""
"11/05/2018","02:09","218CR0028516","SUSPICIOUS ACTIVITY","SUSPICIOUS ACTIVITY","2600 BLK AMHERST","",""
"11/05/2018","04:58","218CR0028517","SUSPICIOUS ACTIVITY","SUSPICIOUS ACTIVITY","HILL AVE AND EVANS","",""
"11/05/2018","05:11","218CR0028518","CITIZEN AID","CITIZEN AID","I15 MM 111 NB","",""
"11/05/2018","06:18","218CR0028519","MEDICAL - EMERGENCY","MEDICAL - EMERGENCY","1125 S MAIN ST","",""
"11/05/2018","06:23","218CR0028520","VANDALISM/CRIMINAL MISCHIEF","VANDALISM/CRIMINAL MISCHIEF","1407 SUNRISE LN","",""
"11/05/2018","06:49","218CR0028521","CITIZEN AID","CITIZEN AID","1631 SAMPSON ST","",""
"11/05/2018","07:34","218CR0028523","CIVIL PAPER SERVICE","CIVIL PAPER SERVICE","309 W DALY","",""
 

BSB police report for November 2, 2018

"11/01/2018","00:21","218CR0028167","T/S","T/S","COPPER AND MAIN","",""
"11/01/2018","00:27","218CR0028168","BUSINESS CHECK","BUSINESS CHECK","1370 HARRISON AVE TOWN PUMP","",""
"11/01/2018","00:55","218CR0028169","SUSPICIOUS ACTIVITY","SUSPICIOUS ACTIVITY","FRONT AND DELAWARE","",""
"11/01/2018","00:55","218CR0028170","SUSPICIOUS ACTIVITY","SUSPICIOUS ACTIVITY","1828 B ST","",""
"11/01/2018","01:30","218CR0028171","T/S","NO LIABILITY INSURANCE IN EFF.","PLATINUM AND MONTANA","",""
"11/01/2018","02:11","218CR0028172","DISTURBANCE","DISTURBANCE","1 W PARK PARK ST PARTY PALACE","",""
"11/01/2018","02:14","218CR0028173","BUSINESS CHECK","BUSINESS CHECK","531 S MONTANA TOWN PUMP","",""
"11/01/2018","02:17","218CR0028174","DISTURBANCE","DISTURBANCE","1620 N MAIN ST","",""
"11/01/2018","02:30","218CR0028175","DISTURBANCE","DISTURBANCE","667 S WASHINGTON","",""
"11/01/2018","02:39","218CR0028176","BUSINESS CHECK","BUSINESS CHECK","58 W PARK ST PARKING GARAGE","",""
"11/01/2018","02:56","218CR0028177","SUSPICIOUS ACTIVITY","SUSPICIOUS ACTIVITY","CENTENNIAL NEAR RR TRACKS","",""
"11/01/2018","03:23","218CR0028178","SUSPICIOUS ACTIVITY","SUSPICIOUS ACTIVITY","715 E 2ND ST","",""
"11/01/2018","03:34","218CR0028179","DISTURBANCE","DISTURBANCE","1046 CALIFORNIA","",""
"11/01/2018","03:59","218CR0028180","THEFT","THEFT, SHOPLIFT","531 S MONTANA","",""
"11/01/2018","04:07","218CR0028181","SUICIDE ATTEMPT/THREAT","SUICIDE ATTEMPT/THREAT","************","",""
"11/01/2018","05:16","218CR0028182","UNWANTED PERSON","UNWANTED PERSON","************","",""
"11/01/2018","05:33","218CR0028183","ASSIST OTHER AGENCY","ASSIST OTHER AGENCY","BUTTE AREA","",""
"11/01/2018","05:36","218CR0028184","SUSPICIOUS ACTIVITY","SUSPICIOUS ACTIVITY","COLORADO AND PLATINUM","",""
"11/01/2018","06:37","218CR0028185","SUSPICIOUS ACTIVITY","SUSPICIOUS ACTIVITY","ADAMS AND LOCUST","",""
"11/01/2018","06:42","218CR0028186","T/S","T/S","ARIZONA ST","",""
"11/01/2018","06:43","218CR0028187","ALARM - ROBBERY","ALARM - ROBBERY","848 W PARK ST","",""
"11/01/2018","07:02","218CR0028188","TRAFFIC","TRAFFIC","GRAND AVE AND WILSON ST","",""
"11/01/2018","07:06","218CR0028189","THEFT","THEFT, ALL OTHERS","301 W GRANITE","",""
"11/01/2018","07:44","218CR0028190","SUSPICIOUS ACTIVITY","SUSPICIOUS ACTIVITY","1301 FOUR MILE RD","",""
"11/01/2018","08:09","218CR0028191","CIVIL PAPER SERVICE","CIVIL PAPER SERVICE","2124 OREGON AVE","",""
"11/01/2018","08:10","218CR0028192","FIRE- GAS ODOR","FIRE- GAS ODOR","2700 HARRISON","",""
"11/01/2018","08:19","218CR0028193","T/S","T/S","HOLMES AND WARREN","",""
"11/01/2018","08:19","218CR0028194","BUSINESS CHECK","BUSINESS CHECK","58 W PARK ST PARKING GARAGE","",""
"11/01/2018","08:20","218CR0028195","SUSPICIOUS ACTIVITY","UNLAWFUL POSSESSION OF FIREARM","400 BLK BROWNS GULCH","ARREST(s) MADE",""
"11/01/2018","08:21","218CR0028196","SUSPICIOUS ACTIVITY","SUSPICIOUS ACTIVITY","1100 GRIZZLY TRAIL","",""
"11/01/2018","08:25","218CR0028197","MEDICAL - EMERGENCY","MEDICAL - EMERGENCY","300 HOLMES AVE","",""
"11/01/2018","08:28","218CR0028198","THEFT","THEFT","1620 N MAIN","",""
"11/01/2018","08:29","218CR0028199","BUSINESS CHECK","BUSINESS CHECK","58 W PARK ST PARKING GARAGE","",""
"11/01/2018","08:47","218CR0028200","DETENTION BUSINESS","DETENTION BUSINESS","************","",""
"11/01/2018","09:05","218CR0028201","THEFT","THEFT FROM MOTOR VEHICLE","1635 CIVIC CENTER RD","",""
"11/01/2018","09:22","218CR0028202","WANTED PERSON","WANTED PERSON","************","",""
"11/01/2018","09:33","218CR0028203","ALARM - BURGLARY","ALARM - BURGLARY","************","",""
"11/01/2018","09:45","218CR0028204","CIVIL PAPER SERVICE","CIVIL PAPER SERVICE","208 N CLARK","",""
"11/01/2018","10:04","218CR0028205","SUSPICIOUS ACTIVITY","SUSPICIOUS ACTIVITY","1142 HOBSON","",""
"11/01/2018","10:07","218CR0028206","T/S","T/S","STUART AND FARRELL","",""
"11/01/2018","10:16","218CR0028207","RESTRAINING ORDER VIOLATION","RESTRAINING ORDER VIOLATION","************","",""
"11/01/2018","10:18","218CR0028208","CIVIL PAPER SERVICE","CIVIL PAPER SERVICE","2510 PARROT ST","",""
"11/01/2018","10:29","218CR0028209","SUSPICIOUS ACTIVITY","SUSPICIOUS ACTIVITY","206 W BROADWAY","",""
"11/01/2018","10:55","218CR0028210","CIVIL PAPER SERVICE","CIVIL PAPER SERVICE","435 S CRYSTAL","",""
"11/01/2018","11:00","218CR0028211","JUVENILE MISC","JUVENILE MISC","************","",""
"11/01/2018","11:05","218CR0028212","ABANDONED VEHICLE","ABANDONED VEHICLE","1100 BLK HOBSON","",""
"11/01/2018","11:15","218CR0028213","SUSPICIOUS ACTIVITY","SUSPICIOUS ACTIVITY","505 CENTENNIAL","",""
"11/01/2018","11:27","218CR0028214","BUSINESS CHECK","BUSINESS CHECK","3700 HARRISON","",""
"11/01/2018","11:32","218CR0028215","WELFARE CHECK","WELFARE CHECK","205 W GRANITE","",""
"11/01/2018","11:38","218CR0028216","MEDICAL - EMERGENCY","MEDICAL - EMERGENCY","MONTANA AND SILVER","",""
"11/01/2018","11:57","218CR0028217","ALARM - MEDICAL","ALARM - MEDICAL","************","",""
"11/01/2018","12:28","218CR0028218","CIVIL STANDBY","CIVIL STANDBY","S WARREN AND BROWNING","",""
"11/01/2018","12:31","218CR0028219","CIVIL STANDBY","CIVIL STANDBY","1111 W WOOLMAN","",""
"11/01/2018","12:42","218CR0028221","WELFARE CHECK","WELFARE CHECK","810 SILVER BOW HOMES","",""
"11/01/2018","12:43","218CR0028220","DETENTION BUSINESS","DETENTION BUSINESS","************","",""
"11/01/2018","12:48","218CR0028222","UNWANTED PERSON","UNWANTED PERSON","************","",""
"11/01/2018","12:49","218CR0028223","MEDICAL - EMERGENCY","MEDICAL - EMERGENCY","180 TRINITY LOOP","",""
"11/01/2018","13:01","218CR0028224","DETENTION BUSINESS","DETENTION BUSINESS","************","",""
"11/01/2018","13:20","218CR0028225","TRAFFIC HAZARD","TRAFFIC HAZARD","2ND ST AND MONTANA ST","",""
"11/01/2018","13:22","218CR0028226","JUVENILE MISC","JUVENILE MISC","************","",""
"11/01/2018","13:27","218CR0028227","TRAFFIC","TRAFFIC","714 KENWOOD AVE","",""
"11/01/2018","14:10","218CR0028228","MEDICAL - EMERGENCY","MEDICAL - EMERGENCY","155 W QUARTZ","",""
"11/01/2018","14:10","218CR0028229","ALARM - BURGLARY","ALARM - BURGLARY","************","",""
"11/01/2018","14:26","218CR0028230","LED BUSINESS","LED BUSINESS","400 S CLARK ST","",""
"11/01/2018","14:35","218CR0028231","THEFT","THEFT","1301 HARRISON AVE","",""
"11/01/2018","14:38","218CR0028232","WELFARE CHECK","WELFARE CHECK","1129 ATLANTIC","",""
"11/01/2018","14:48","218CR0028233","ATL","ATL","ARIZONA ST AND PARK ST","",""
"11/01/2018","15:14","218CR0028234","ALL OTHER","THEFT FROM MOTOR VEHICLE","119800 RICK JONES WY","",""
"11/01/2018","15:17","218CR0028235","ATL","ATL","AMHERST ST AND HARRISON AVE","",""
"11/01/2018","15:24","218CR0028237","THEFT","THEFT","845 S WYOMING ST","",""
"11/01/2018","15:30","218CR0028238","UNKNOWN PROBLEM","UNKNOWN PROBLEM","722 S COLORADO ST","",""
"11/01/2018","15:38","218CR0028239","ALL OTHER","ALL OTHER","600 S MAIN STREET","",""
"11/01/2018","15:58","218CR0028240","HARASSMENT","HARASSMENT","816 W DIAMOND","",""
"11/01/2018","16:02","218CR0028241","THEFT","THEFT","407 W MERCURY","",""
"11/01/2018","16:07","218CR0028242","SUSPICIOUS ACTIVITY","SUSPICIOUS ACTIVITY","ALABAMA ST AND COPPER ST","",""
"11/01/2018","16:51","218CR0028243","UNWANTED PERSON","UNWANTED PERSON","************","",""
"11/01/2018","16:53","218CR0028244","UNKNOWN PROBLEM","CRIMINAL TRESPASS TO PROPERTY","938 CALIFORNIA","ARREST(s) MADE",""
"11/01/2018","16:57","218CR0028245","ACCIDENT","CARELESS DRIVING","2800 HARRISON AVE","",""
"11/01/2018","17:18","218CR0028246","UNWANTED PERSON","UNWANTED PERSON","************","",""
"11/01/2018","17:46","218CR0028247","ALL OTHER","ALL OTHER","812 SILVER BOW HOMES","",""
"11/01/2018","17:50","218CR0028248","LED BUSINESS","LED BUSINESS","1621 THORNTON AVE","",""
"11/01/2018","17:55","218CR0028249","HARASSMENT","HARASSMENT","431 W SILVER ST","",""
"11/01/2018","18:46","218CR0028250","FOUND PROPERTY","FOUND PROPERTY","************","",""
"11/01/2018","18:46","218CR0028251","T/S","T/S @ GRAND AND FARRAGUT","GRAND AND FARRAGUT","",""
"11/01/2018","18:47","218CR0028252","ASSIST OTHER AGENCY","ASSIST OTHER AGENCY","","",""
"11/01/2018","18:59","218CR0028253","BUSINESS CHECK","BUSINESS CHECK","58 W PARK ST PARKING GARAGE","",""
"11/01/2018","19:08","218CR0028254","FIRE - STRUCTURE","FIRE - STRUCTURE","301 E MERCURY ST","",""
"11/01/2018","19:09","218CR0028255","T/S","T/S","CHICAGO AND SHIELDS","",""
"11/01/2018","19:17","218CR0028256","T/S","T/S","CIVIC CENTER RD","",""
"11/01/2018","19:44","218CR0028257","SUICIDE ATTEMPT/THREAT","SUICIDE ATTEMPT/THREAT","************","",""
"11/01/2018","19:56","218CR0028258","MEDICAL - EMERGENCY","MEDICAL - EMERGENCY","1125 S MAIN # 107","",""
"11/01/2018","20:21","218CR0028259","DRUGS","DRUGS","************","",""
"11/01/2018","21:06","218CR0028260","INTOXICATED PERSON","INTOXICATED PERSON","EXCEL & PARK","",""
"11/01/2018","21:09","218CR0028261","JUVENILE MISC","JUVENILE MISC","************","",""
"11/01/2018","21:27","218CR0028262","UNWANTED PERSON","PFMA - REASONABLE APPREHENSION","936 NEVADA","ARREST(s) MADE",""
"11/01/2018","21:44","218CR0028263","UNWANTED PERSON","UNWANTED PERSON","************","",""
"11/01/2018","23:11","218CR0028264","CRIMINAL TRESPASS","CRIMINAL TRESPASS","3901 HARRISON AVE","",""
"11/01/2018","23:27","218CR0028265","UNWANTED PERSON","UNWANTED PERSON","************","",""
"11/02/2018","00:01","218CR0028266","SEXUAL ASSAULT","SEXUAL ASSAULT","************","",""
"11/02/2018","00:17","218CR0028267","ATL","ATL","24 E COPPER","",""
"11/02/2018","00:39","218CR0028268","DISTURBANCE","DISTURBANCE","541 S MONTANA SPUD MCGEES","",""
"11/02/2018","00:42","218CR0028269","DUI","AGGRAVATED DUI","2112 GRAND AVE","ARREST(s) MADE",""
"11/02/2018","00:47","218CR0028270","DISTURBANCE","CRIMINAL CONTEMPT","541 S MAIN SPUD MCGEES","ARREST(s) MADE",""
"11/02/2018","01:53","218CR0028271","ILLEGAL SHOOTING","ILLEGAL SHOOTING","31 E GAGNON ST","",""
"11/02/2018","03:44","218CR0028272","MEDICAL - EMERGENCY","MEDICAL - EMERGENCY","812 SILVERBOW HOMES","",""
"11/02/2018","04:11","218CR0028273","SUSPICIOUS ACTIVITY","SUSPICIOUS ACTIVITY","2925 HANSEN RD","",""
"11/02/2018","04:35","218CR0028274","OPEN BUILDING","OPEN BUILDING","2937 HANSEN RD","",""
"11/02/2018","05:29","218CR0028275","SUSPICIOUS ACTIVITY","SUSPICIOUS ACTIVITY","CONTINENTAL DR AND BAYARD ST","",""
"11/02/2018","06:35","218CR0028276","THEFT","THEFT, SHOPLIFT","531 S MONTANA","",""
"11/02/2018","07:18","218CR0028277","ANIMAL COMPLAINT","ANIMAL COMPLAINT","BARTLETT // ASPEN LOOP","",""
 

BSB police report ending November 1, 2018

"10/31/2018","00:30","218CR0028083","SUSPICIOUS ACTIVITY","SUSPICIOUS ACTIVITY","3300 HARRISON AVE","",""
"10/31/2018","00:56","218CR0028084","DISTURBANCE","DISTURBANCE","200 HOWARD","",""
"10/31/2018","01:10","218CR0028085","TRAFFIC","TRAFFIC","I15 MM123 NB","",""
"10/31/2018","01:26","218CR0028086","ATL","ATL","HARRISON AND DEWEY","",""
"10/31/2018","01:37","218CR0028087","HARASSMENT","HARASSMENT","500 S EMMETT","",""
"10/31/2018","01:50","218CR0028088","THEFT","THEFT","700 S MONTANA CAR TUNE AUTO","",""
"10/31/2018","02:25","218CR0028089","CHILD ABUSE","CHILD ABUSE","************","",""
"10/31/2018","03:45","218CR0028090","MEDICAL - EMERGENCY","MEDICAL - EMERGENCY","122000 BROWNS GULCH FLYINGJ","",""
"10/31/2018","03:48","218CR0028091","DISTURBANCE","CRIMINAL CONTEMPT","1370 HARRISON TOWN PUMP","ARREST(s) MADE",""
"10/31/2018","06:22","218CR0028092","T/S","T/S","MERCURY ST AND IDAHO ST","",""
"10/31/2018","06:25","218CR0028093","BURGLARY","BURGLARY, RESIDENCE","830 W COPPER","",""
"10/31/2018","06:31","218CR0028094","ATL","ATL","MONTANA AND ROWE RD","",""
"10/31/2018","07:02","218CR0028095","UNKNOWN PROBLEM","UNKNOWN PROBLEM","SILVER BOW HOMES","",""
"10/31/2018","07:21","218CR0028096","T/S","T/S","WASHINGTON AND GRANITE","",""
"10/31/2018","07:48","218CR0028097","SUSPICIOUS ACTIVITY","SUSPICIOUS ACTIVITY","BROADWAY AND MAIN","",""
"10/31/2018","08:04","218CR0028098","LED BUSINESS","LED BUSINESS","24 E COPPER","",""
"10/31/2018","08:06","218CR0028099","THEFT","THEFT","927 S COLORADO","",""
"10/31/2018","08:16","218CR0028100","TRAFFIC HAZARD","TRAFFIC HAZARD","1300 BLK MISSOURI","",""
"10/31/2018","08:40","218CR0028101","T/S","T/S @ PARK ST AND EXCELSIOR AVE","PARK ST AND EXCELSIOR AVE","",""
"10/31/2018","08:41","218CR0028102","BUSINESS CHECK","BUSINESS CHECK","58 W PARK ST PARKING GARAGE","",""
"10/31/2018","08:41","218CR0028103","CIVIL PAPER SERVICE","CIVIL PAPER SERVICE","22 W GALENA","",""
"10/31/2018","08:43","218CR0028104","THEFT","THEFT, ALL OTHERS","2600 GRAND AVE","",""
"10/31/2018","08:54","218CR0028105","T/S","SPEEDING","PARK ST AND EXCELSIOR AVE","",""
"10/31/2018","08:55","218CR0028106","DETENTION BUSINESS","DETENTION BUSINESS","************","",""
"10/31/2018","08:57","218CR0028107","T/S","T/S","CONTINENTAL DRIVE AND HAYES AV","",""
"10/31/2018","09:08","218CR0028108","T/S","T/S @ PARK AND GALENA","PARK AND GALENA","",""
"10/31/2018","09:23","218CR0028109","T/S","T/S @ 1301 W PARK","1301 W PARK","",""
"10/31/2018","09:48","218CR0028110","T/S","T/S @ SHERMAN AND AMHERST","SHERMAN AND AMHERST","",""
"10/31/2018","11:02","218CR0028111","VANDALISM/CRIMINAL MISCHIEF","CRIMINAL MISCHIEF","2001 FOUR MILE RD","",""
"10/31/2018","11:11","218CR0028112","THEFT","THEFT, SHOPLIFT","310 W FRONT ST","",""
"10/31/2018","12:01","218CR0028114","WELFARE CHECK","WELFARE CHECK","2421 SKI LOOP AREA","",""
"10/31/2018","12:08","218CR0028115","JUVENILE MISC","JUVENILE MISC","************","",""
"10/31/2018","12:26","218CR0028116","MEDICAL - EMERGENCY","MEDICAL - EMERGENCY","3000 CONTINENTALDRIVE","",""
"10/31/2018","12:37","218CR0028117","TRAFFIC HAZARD","TRAFFIC HAZARD","2400 HARRISON","",""
"10/31/2018","12:40","218CR0028118","T/S","T/S","SHERIDAN AVE AND EDWARDS ST","",""
"10/31/2018","12:57","218CR0028119","T/S","T/S","MAIN ST AND MERCURY ST","",""
"10/31/2018","13:09","218CR0028120","SEXUAL ASSAULT","SEXUAL ASSAULT","************","",""
"10/31/2018","13:10","218CR0028121","T/S","T/S","DEWEY AND NEVADA ST","",""
"10/31/2018","13:21","218CR0028122","VANDALISM/CRIMINAL MISCHIEF","CRIMINAL MISCHIEF","652 1/2 S COLORADO ST","",""
"10/31/2018","13:28","218CR0028123","DETENTION BUSINESS","DETENTION BUSINESS","************","",""
"10/31/2018","13:32","218CR0028124","T/S","T/S @ PARK AND EXCELSIOR","PARK AND EXCELSIOR","",""
"10/31/2018","13:38","218CR0028125","RESTRAINING ORDER VIOLATION","VIOLATION OF PROTECTION ORDER","3260 PACER","",""
"10/31/2018","13:45","218CR0028126","T/S","T/S @ 1301 BLK W PARK","1301 BLK W PARK","",""
"10/31/2018","13:50","218CR0028127","TRAFFIC","TRAFFIC","1300 BLK W PARK","",""
"10/31/2018","14:07","218CR0028128","ALARM - BURGLARY","ALARM - BURGLARY","************","",""
"10/31/2018","14:34","218CR0028129","THEFT","THEFT","106 W BROADWAY ST","",""
"10/31/2018","14:54","218CR0028130","ALARM - FIRE","ALARM - FIRE","400 S CLARK ST","",""
"10/31/2018","14:59","218CR0028131","ASSIST OTHER AGENCY","ASSIST OTHER AGENCY","","",""
"10/31/2018","15:07","218CR0028132","CITIZEN AID","CITIZEN AID","I 15 MM 127","",""
"10/31/2018","15:09","218CR0028133","ALL OTHER","ALL OTHER","2902 DEXTER","",""
"10/31/2018","15:11","218CR0028134","LED BUSINESS","LED BUSINESS","155 W GRANITE","",""
"10/31/2018","15:18","218CR0028135","CITIZEN AID","CITIZEN AID","433 N MAIN ST","",""
"10/31/2018","15:19","218CR0028136","VANDALISM/CRIMINAL MISCHIEF","VANDALISM/CRIMINAL MISCHIEF","BUXTON MAILBOXES","",""
"10/31/2018","15:59","218CR0028137","MEDICAL - EMERGENCY","MEDICAL - EMERGENCY","446 WHISPER RIDGE","",""
"10/31/2018","16:01","218CR0028138","DISTURBANCE","DISTURBANCE","815 W PARK ST","",""
"10/31/2018","16:13","218CR0028139","MEDICAL - EMERGENCY","MEDICAL - EMERGENCY","1655 SCHLEY AVE","",""
"10/31/2018","16:30","218CR0028140","BUSINESS CHECK","BUSINESS CHECK","58 W PARK ST PARKING GARAGE","",""
"10/31/2018","16:47","218CR0028141","SUSPICIOUS ACTIVITY","SUSPICIOUS ACTIVITY","400 BLK N MAIN","",""
"10/31/2018","17:19","218CR0028142","WELFARE CHECK","WELFARE CHECK","2219 SILVER BOW BLV","",""
"10/31/2018","17:23","218CR0028143","MEDICAL - EMERGENCY","MEDICAL - EMERGENCY","2110 HARVARD","",""
"10/31/2018","17:40","218CR0028144","BUSINESS CHECK","BUSINESS CHECK","58 W PARK ST PARKING GARAGE","",""
"10/31/2018","18:47","218CR0028145","MEDICAL - EMERGENCY","MEDICAL - EMERGENCY","2110 HARVARD","",""
"10/31/2018","18:49","218CR0028146","ALL OTHER","ALL OTHER","800 W GRANITE","",""
"10/31/2018","19:25","218CR0028147","ALL OTHER","ALL OTHER","ST ANNS CHURCH","",""
"10/31/2018","19:55","218CR0028148","ATL","ASSAULT PEACE OFFC -  NO INJ","FRONT AND MONTANA ST","ARREST(s) MADE",""
"10/31/2018","20:27","218CR0028149","MEDICAL - ASSIST","MEDICAL - ASSIST","************","",""
"10/31/2018","20:30","218CR0028150","ALARM-DURESS","ALARM-DURESS","************","",""
"10/31/2018","20:43","218CR0028151","PARKING COMPLAINT","PARKING COMPLAINT","MERCURY ST AND SHIELDS AVE","",""
"10/31/2018","20:49","218CR0028152","SUSPICIOUS ACTIVITY","SUSPICIOUS ACTIVITY","HARRISON AND HOLMES","",""
"10/31/2018","20:55","218CR0028153","CITIZEN AID","CITIZEN AID","COUNTRY CLUB AND ELIZABETH WAR","",""
"10/31/2018","21:04","218CR0028154","DISTURBANCE","DISTURBANCE","636 1/2 W PARK","",""
"10/31/2018","21:35","218CR0028155","MEDICAL - EMERGENCY","MEDICAL - EMERGENCY","1825 HOWARD AVE","",""
"10/31/2018","21:56","218CR0028156","T/S","T/S","GALENA AND MONTANA","",""
"10/31/2018","22:19","218CR0028157","T/S","T/S","FARRAGUT AVE AND AMHERST ST","",""
"10/31/2018","22:26","218CR0028158","T/S","T/S","HARRISON AND GILMAN","",""
"10/31/2018","22:42","218CR0028159","T/S","T/S @ PLATINUM AND MONTANA","PLATINUM AND MONTANA","",""
"10/31/2018","22:49","218CR0028160","T/S","T/S @ PARK AND ALABAMA","PARK AND ALABAMA","",""
"10/31/2018","23:05","218CR0028161","T/S","T/S @ FRONT AND DAKOTA ST","FRONT AND DAKOTA ST","",""
"10/31/2018","23:10","218CR0028162","SUSPICIOUS ACTIVITY","SUSPICIOUS ACTIVITY","900 ROW OF SILVER BOW HOMES","",""
"10/31/2018","23:13","218CR0028163","SUSPICIOUS ACTIVITY","SUSPICIOUS ACTIVITY","4930 SADDLEROCK","",""
"10/31/2018","23:29","218CR0028164","T/S","T/S @ HARRISON AND 4 MILE RD","HARRISON AND 4 MILE RD","",""
"10/31/2018","23:53","218CR0028165","SUSPICIOUS ACTIVITY","SUSPICIOUS ACTIVITY","MOTHERLODE THEATER","",""
"10/31/2018","23:53","218CR0028166","T/S","T/S","MONTANA AND PLATINUM","",""
"11/01/2018","00:21","218CR0028167","T/S","T/S","COPPER AND MAIN","",""
"11/01/2018","00:27","218CR0028168","BUSINESS CHECK","BUSINESS CHECK","1370 HARRISON AVE TOWN PUMP","",""
"11/01/2018","00:55","218CR0028169","SUSPICIOUS ACTIVITY","SUSPICIOUS ACTIVITY","FRONT AND DELAWARE","",""
"11/01/2018","00:55","218CR0028170","SUSPICIOUS ACTIVITY","SUSPICIOUS ACTIVITY","1828 B ST","",""
"11/01/2018","01:30","218CR0028171","T/S","NO LIABILITY INSURANCE IN EFF.","PLATINUM AND MONTANA","",""
"11/01/2018","02:11","218CR0028172","DISTURBANCE","DISTURBANCE","1 W PARK PARK ST PARTY PALACE","",""
"11/01/2018","02:14","218CR0028173","BUSINESS CHECK","BUSINESS CHECK","531 S MONTANA TOWN PUMP","",""
"11/01/2018","02:17","218CR0028174","DISTURBANCE","DISTURBANCE","1620 N MAIN ST","",""
"11/01/2018","02:30","218CR0028175","DISTURBANCE","DISTURBANCE","667 S WASHINGTON","",""
"11/01/2018","02:39","218CR0028176","BUSINESS CHECK","BUSINESS CHECK","58 W PARK ST PARKING GARAGE","",""
"11/01/2018","02:56","218CR0028177","SUSPICIOUS ACTIVITY","SUSPICIOUS ACTIVITY","CENTENNIAL NEAR RR TRACKS","",""
"11/01/2018","03:23","218CR0028178","SUSPICIOUS ACTIVITY","SUSPICIOUS ACTIVITY","715 E 2ND ST","",""
"11/01/2018","03:34","218CR0028179","DISTURBANCE","DISTURBANCE","1046 CALIFORNIA","",""
"11/01/2018","03:59","218CR0028180","THEFT","THEFT, SHOPLIFT","531 S MONTANA","",""
"11/01/2018","04:07","218CR0028181","SUICIDE ATTEMPT/THREAT","SUICIDE ATTEMPT/THREAT","************","",""
"11/01/2018","05:16","218CR0028182","UNWANTED PERSON","UNWANTED PERSON","************","",""
"11/01/2018","05:36","218CR0028184","SUSPICIOUS ACTIVITY","SUSPICIOUS ACTIVITY","COLORADO AND PLATINUM","",""
"11/01/2018","06:37","218CR0028185","SUSPICIOUS ACTIVITY","SUSPICIOUS ACTIVITY","ADAMS AND LOCUST","",""
"11/01/2018","06:42","218CR0028186","T/S","T/S","ARIZONA ST","",""
"11/01/2018","06:43","218CR0028187","ALARM - ROBBERY","ALARM - ROBBERY","848 W PARK ST","",""
"11/01/2018","07:02","218CR0028188","TRAFFIC","TRAFFIC","GRAND AVE AND WILSON ST","",""
"11/01/2018","07:06","218CR0028189","THEFT","THEFT","301 W GRANITE","",""
"11/01/2018","07:44","218CR0028190","SUSPICIOUS ACTIVITY","SUSPICIOUS ACTIVITY","1301 FOUR MILE RD","",""
"11/01/2018","08:09","218CR0028191","CIVIL PAPER SERVICE","CIVIL PAPER SERVICE","2124 OREGON AVE","",""
 

BSB police report for October 31, 2018

"10/30/2018","00:13","218CR0027954","SUSPICIOUS ACTIVITY","BURGLARY, NON-RESIDENCE","1730 LONGFELLOW","ARREST(s) MADE",""
"10/30/2018","01:00","218CR0027955","SUSPICIOUS ACTIVITY","CRIMINAL CONTEMPT","GOLD AND MAIN ST","ARREST(s) MADE",""
"10/30/2018","01:08","218CR0027956","SUSPICIOUS ACTIVITY","SUSPICIOUS ACTIVITY","226 E 2ND","",""
"10/30/2018","01:42","218CR0027957","STOLEN VEHICLE","MOTOR VEHICLE THEFT","500 BLK S MAIN","",""
"10/30/2018","01:45","218CR0027958","SUSPICIOUS ACTIVITY","SUSPICIOUS ACTIVITY","3311 BURLINGTON","",""
"10/30/2018","02:05","218CR0027959","T/S","FLEEING FROM/ELUDING POLICE","PAXSON AND MEADOLARK","",""
"10/30/2018","03:05","218CR0027960","T/S","T/S","MEADOWLARK AND WESTERN BLVD","",""
"10/30/2018","03:15","218CR0027961","SUSPICIOUS ACTIVITY","SUSPICIOUS ACTIVITY","1000 GRIZZLY TR TOWN PUMP","",""
"10/30/2018","03:36","218CR0027962","SUSPICIOUS ACTIVITY","SUSPICIOUS ACTIVITY","HOLMES AVE AND ARIZONA ST","",""
"10/30/2018","03:55","218CR0027963","SUSPICIOUS ACTIVITY","SUSPICIOUS ACTIVITY","COPPERCITY CASINO/1285 HARRISO","",""
"10/30/2018","04:01","218CR0027964","SUSPICIOUS ACTIVITY","SUSPICIOUS ACTIVITY","2305 CONTINENTAL DR TOWN PUMP","",""
"10/30/2018","04:11","218CR0027965","THEFT","BURGLARY, RESIDENCE","1624 LAFAYETTE","ARREST(s) MADE",""
"10/30/2018","04:31","218CR0027966","SUSPICIOUS ACTIVITY","SUSPICIOUS ACTIVITY","2711 HARRISON AVE TOWN PUMP","",""
"10/30/2018","04:50","218CR0027967","SUSPICIOUS ACTIVITY","SUSPICIOUS ACTIVITY","3745 HARRISON BUFFALO WILD WIN","",""
"10/30/2018","05:29","218CR0027968","T/S","T/S @ ATLANTIC AND FIRST","ATLANTIC AND FIRST","",""
"10/30/2018","05:38","218CR0027969","SUSPICIOUS ACTIVITY","SUSPICIOUS ACTIVITY","3901 HARRISON WALMART","",""
"10/30/2018","06:16","218CR0027970","STOLEN VEHICLE","MOTOR VEHICLE THEFT","3347 BURLINGTON AVE","",""
"10/30/2018","07:16","218CR0027971","T/S","NO LIABILITY INSURANCE IN EFF.","ALASKA ST AND COPPER ST","",""
"10/30/2018","07:56","218CR0027972","VANDALISM/CRIMINAL MISCHIEF","THEFT FROM MOTOR VEHICLE","1621 LAFAYETTE AVE","",""
"10/30/2018","08:08","218CR0027973","ATL","ATL","WHITEHALL","",""
"10/30/2018","08:26","218CR0027974","BUSINESS CHECK","BUSINESS CHECK","58 W PARK ST PARKING GARAGE","",""
"10/30/2018","08:32","218CR0027975","ASSAULT","ASSAULT","************","",""
"10/30/2018","08:32","218CR0027976","WELFARE CHECK","WELFARE CHECK","2220 WALNUT","",""
"10/30/2018","08:33","218CR0027977","DETENTION BUSINESS","DETENTION BUSINESS","************","",""
"10/30/2018","08:33","218CR0027978","INFORMATION ONLY","INFORMATION ONLY","2600 GRAND AVE","",""
"10/30/2018","08:39","218CR0027979","CIVIL PAPER SERVICE","CIVIL PAPER SERVICE","4810 S ARIZONA","",""
"10/30/2018","08:47","218CR0027980","T/S","T/S @ HARRISON AND ARGYLE","HARRISON AND ARGYLE","",""
"10/30/2018","08:59","218CR0027981","CIVIL PAPER SERVICE","CIVIL PAPER SERVICE","522 N WYOMING APT B","",""
"10/30/2018","09:18","218CR0027982","CIVIL PAPER SERVICE","CIVIL PAPER SERVICE","3020 QUINCY ST","",""
"10/30/2018","09:23","218CR0027983","HIT AND RUN","HIT AND RUN","1701 S MONTANA","",""
"10/30/2018","09:27","218CR0027984","CIVIL PAPER SERVICE","CIVIL PAPER SERVICE","896 N MAIN","",""
"10/30/2018","09:36","218CR0027985","CIVIL PAPER SERVICE","CIVIL PAPER SERVICE","115 ONEIL","",""
"10/30/2018","09:37","218CR0027986","CIVIL PAPER SERVICE","CIVIL PAPER SERVICE","518 N MAIN","",""
"10/30/2018","09:45","218CR0027987","CIVIL PAPER SERVICE","CIVIL PAPER SERVICE","10 GLADSTONE TERRACE","",""
"10/30/2018","09:55","218CR0027988","CIVIL PAPER SERVICE","CIVIL PAPER SERVICE","534 W BROADWAY","",""
"10/30/2018","09:58","218CR0027989","UNWANTED PERSON","UNWANTED PERSON","************","",""
"10/30/2018","10:03","218CR0027990","DETENTION BUSINESS","DETENTION BUSINESS","************","",""
"10/30/2018","10:06","218CR0027991","ATL","ATL","220 N WYOMING","",""
"10/30/2018","10:06","218CR0027992","ALARM - BURGLARY","ALARM - BURGLARY","************","",""
"10/30/2018","10:08","218CR0027993","T/S","T/S","BROADWAY AND MAIN","",""
"10/30/2018","10:09","218CR0027994","INFORMATION ONLY","INFORMATION ONLY","HELENA","",""
"10/30/2018","10:10","218CR0027995","CITIZEN AID","CITIZEN AID","303 W QUARTZ # 8","",""
"10/30/2018","10:14","218CR0027996","DISORDERLY CONDUCT","DISORDERLY CONDUCT","2500 SHERMAN AVE","",""
"10/30/2018","10:20","218CR0027997","VANDALISM/CRIMINAL MISCHIEF","THEFT FROM MOTOR VEHICLE","1301 W PARK","",""
"10/30/2018","10:22","218CR0027999","CIVIL PAPER SERVICE","CIVIL PAPER SERVICE","","",""
"10/30/2018","10:22","218CR0027998","CIVIL PAPER SERVICE","CIVIL PAPER SERVICE","1315 IOWA","",""
"10/30/2018","10:24","218CR0028000","LED BUSINESS","LED BUSINESS","155 W GRANITE","",""
"10/30/2018","10:26","218CR0028001","VANDALISM/CRIMINAL MISCHIEF","CRIMINAL MISCHIEF","200 MISSOULA AV","",""
"10/30/2018","10:44","218CR0028002","HARASSMENT","HARASSMENT","2028 STUART","",""
"10/30/2018","10:48","218CR0028003","DRUGS","DRUGS","************","",""
"10/30/2018","10:58","218CR0028004","DISTURBANCE","DISTURBANCE","62 W BROADWAY","",""
"10/30/2018","11:02","218CR0028005","MEDICAL - EMERGENCY","MEDICAL - EMERGENCY","611 E FRONT","",""
"10/30/2018","11:07","218CR0028006","T/S","T/S @ GRAND AND GARFIELD","GRAND AND GARFIELD","",""
"10/30/2018","11:20","218CR0028007","ALARM - BURGLARY","ALARM - BURGLARY","************","",""
"10/30/2018","11:51","218CR0028009","SUSPICIOUS ACTIVITY","CRIMINAL TRESPASS TO PROPERTY","1719 WHITMAN","",""
"10/30/2018","11:51","218CR0028008","T/S","T/S @ PARK ST AND EXCELSIOR AVE","PARK ST AND EXCELSIOR AVE","",""
"10/30/2018","11:58","218CR0028011","JUVENILE MISC","JUVENILE MISC","************","",""
"10/30/2018","11:58","218CR0028010","ALARM - MEDICAL","ALARM - MEDICAL","************","",""
"10/30/2018","12:12","218CR0028013","VANDALISM/CRIMINAL MISCHIEF","VANDALISM/CRIMINAL MISCHIEF","1000 GRIZZLY TRAIL","",""
"10/30/2018","12:24","218CR0028014","WELFARE CHECK","WELFARE CHECK","34 S MAIN","",""
"10/30/2018","12:25","218CR0028015","BUSINESS CHECK","BUSINESS CHECK","58 W PARK","",""
"10/30/2018","12:26","218CR0028016","ALL OTHER","ALL OTHER","BUTTE SILVER BOW","",""
"10/30/2018","12:31","218CR0028017","T/S","SPEEDING","SILVER ST AND EXCELSIOR AVE","",""
"10/30/2018","12:36","218CR0028018","LED BUSINESS","LED BUSINESS","RURAL PATROL","",""
"10/30/2018","12:40","218CR0028019","CIVIL PAPER SERVICE","CIVIL PAPER SERVICE","2545 AMHERST","",""
"10/30/2018","12:42","218CR0028020","ASSAULT","PFMA - MINOR INJ/PHYSICAL CONT","318 S EXCELSIOR","",""
"10/30/2018","12:49","218CR0028021","T/S","T/S","2280 AMHERST LENNYS CASINO","",""
"10/30/2018","12:54","218CR0028022","DETENTION BUSINESS","DETENTION BUSINESS","************","",""
"10/30/2018","13:19","218CR0028023","TRAFFIC HAZARD","TRAFFIC HAZARD","700 BLK ARIZONA","",""
"10/30/2018","13:44","218CR0028024","SUSPICIOUS ACTIVITY","SUSPICIOUS ACTIVITY","2900 BLK GRAND AV","",""
"10/30/2018","13:53","218CR0028025","ATL","ATL","100 E FRONT","",""
"10/30/2018","14:06","218CR0028026","T/S","T/S","I15 MM 127 EB","",""
"10/30/2018","14:11","218CR0028027","ANIMAL COMPLAINT","ANIMAL COMPLAINT","GAYLORD AND TAFT","",""
"10/30/2018","14:14","218CR0028028","TRAFFIC HAZARD","TRAFFIC HAZARD","502 E FRONT ST","",""
"10/30/2018","14:17","218CR0028029","LED BUSINESS","LED BUSINESS","520 HOLMES RED WRECKER","",""
"10/30/2018","14:29","218CR0028030","ALL OTHER","ALL OTHER","","",""
"10/30/2018","14:35","218CR0028031","SUSPICIOUS ACTIVITY","SUSPICIOUS ACTIVITY","2902 DEXTER","",""
"10/30/2018","15:06","218CR0028032","T/S","T/S @ ARGYLE ST AND HARRISON AVE","ARGYLE ST AND HARRISON AVE","",""
"10/30/2018","15:08","218CR0028033","ALARM - BURGLARY","ALARM - BURGLARY","************","",""
"10/30/2018","15:18","218CR0028034","WANTED PERSON","WANTED PERSON","************","",""
"10/30/2018","15:19","218CR0028035","ALL OTHER","ALL OTHER","1736 LONGFELLOW #9","",""
"10/30/2018","15:41","218CR0028036","ALL OTHER","ALL OTHER","","",""
"10/30/2018","15:41","218CR0028037","BUSINESS CHECK","BUSINESS CHECK","58 W PARK","",""
"10/30/2018","15:41","218CR0028038","MEDICAL - EMERGENCY","MEDICAL - EMERGENCY","50 BURNING TREE LANE","",""
"10/30/2018","15:48","218CR0028039","THEFT","THEFT","643 S MAIN","",""
"10/30/2018","15:53","218CR0028040","WELFARE CHECK","WELFARE CHECK","201 SILVER BOW HOMES","",""
"10/30/2018","15:55","218CR0028041","LOST CHILD","LOST CHILD","************","",""
"10/30/2018","16:24","218CR0028042","CIVIL PAPER SERVICE","CIVIL PAPER SERVICE","155 W QUARTZ","",""
"10/30/2018","16:33","218CR0028043","SUSPICIOUS ACTIVITY","SUSPICIOUS ACTIVITY","1000 GRIZZLEY TRAIL","",""
"10/30/2018","16:46","218CR0028044","ALL OTHER","ALL OTHER","","",""
"10/30/2018","16:54","218CR0028045","LED BUSINESS","LED BUSINESS","ROCKER","",""
"10/30/2018","17:06","218CR0028046","ALL OTHER","ALL OTHER","4002 HANCOCK AVE","",""
"10/30/2018","17:22","218CR0028047","UNWANTED PERSON","PROTECTIVE CUSTODY","220 N WYOMING","ARREST(s) MADE",""
"10/30/2018","17:28","218CR0028048","CITIZEN AID","CITIZEN AID","ROCKER","",""
"10/30/2018","17:31","218CR0028049","PARKING COMPLAINT","PARKING COMPLAINT","1642 S WARREN","",""
"10/30/2018","17:41","218CR0028050","DISTURBANCE-NOISE","DISTURBANCE-NOISE","629 S IDAHO","",""
"10/30/2018","17:47","218CR0028051","ALL OTHER","ALL OTHER","I15 MM134 NBND","",""
"10/30/2018","17:54","218CR0028052","UNWANTED PERSON","UNWANTED PERSON","************","",""
"10/30/2018","18:30","218CR0028053","T/S","T/S @ BLACKTAIL AND ELIZABETH WARRE","BLACKTAIL AND ELIZABETH WARRE","",""
"10/30/2018","18:33","218CR0028054","ALL OTHER","ALL OTHER","","",""
"10/30/2018","18:35","218CR0028055","ALL OTHER","ALL OTHER","","",""
"10/30/2018","18:49","218CR0028056","T/S","T/S @ SANTA CLAUS AND FAWN DRIVE","SANTA CLAUS AND FAWN DRIVE","",""
"10/30/2018","18:51","218CR0028057","ALL OTHER","ALL OTHER","1250 QUARTZ","",""
"10/30/2018","19:15","218CR0028058","THEFT","THEFT","1000 GRIZZLEY TRAIL","",""
"10/30/2018","19:27","218CR0028059","JUVENILE MISC","JUVENILE MISC","************","",""
"10/30/2018","19:47","218CR0028060","CITIZEN AID","CITIZEN AID","","",""
"10/30/2018","20:10","218CR0028061","ALL OTHER","ALL OTHER","1000 GRIZZLEY TRAIL","",""
"10/30/2018","20:24","218CR0028062","DISTURBANCE","DISTURBANCE","629 1/2 S IDAHO","",""
"10/30/2018","20:44","218CR0028063","ALL OTHER","ALL OTHER","122080 NISSLER RD","",""
"10/30/2018","20:53","218CR0028065","UNWANTED PERSON","UNWANTED PERSON","************","",""
"10/30/2018","20:56","218CR0028064","SUSPICIOUS ACTIVITY","SUSPICIOUS ACTIVITY","500 S EMMETT","",""
"10/30/2018","21:07","218CR0028066","SUSPICIOUS ACTIVITY","SUSPICIOUS ACTIVITY","3941 WYNNE","",""
"10/30/2018","21:32","218CR0028067","T/S","OPERATING WITHOUT CURRENT REGI","MONTANA AND MERCURY","",""
"10/30/2018","21:32","218CR0028068","T/S","T/S @ ","","",""
"10/30/2018","21:41","218CR0028069","ALL OTHER","ALL OTHER","225 N ALASKA","",""
"10/30/2018","21:44","218CR0028070","ASSAULT","ASSAULT WITH WEAPON","901 DELAWARE AVE","ARREST(s) MADE",""
"10/30/2018","21:45","218CR0028071","SUSPICIOUS ACTIVITY","CRIMINAL MISCHIEF","200 HOWARD","ARREST(s) MADE",""
"10/30/2018","22:01","218CR0028072","T/S","T/S","MAIN AND SILVER STS","",""
"10/30/2018","22:24","218CR0028073","ANIMAL COMPLAINT","ANIMAL COMPLAINT","270 PASSMORE CANYON RD #A","",""
"10/30/2018","22:38","218CR0028074","SUSPICIOUS ACTIVITY","SUSPICIOUS ACTIVITY","800 BLK W QUARTZ","",""
"10/30/2018","22:52","218CR0028075","SEXUAL ASSAULT","SEXUAL ASSAULT","************","",""
"10/30/2018","23:06","218CR0028076","UNKNOWN PROBLEM","UNKNOWN PROBLEM","1904 FARRAGUT","",""
"10/30/2018","23:09","218CR0028077","ASSAULT","ASSAULT","************","",""
"10/30/2018","23:16","218CR0028078","SUSPICIOUS ACTIVITY","DUI - (REFUSAL)","1100 BLK W GRANITE","ARREST(s) MADE",""
"10/30/2018","23:23","218CR0028079","T/S","DUI - (REFUSAL)","MONTANA AND TECUMSEH WY","ARREST(s) MADE",""
"10/30/2018","23:45","218CR0028080","ALL OTHER","ALL OTHER","220 N WYOMING ST #109","",""
"10/30/2018","23:53","218CR0028081","FIRE - OTHER","FIRE - OTHER","62 W BROADWAY","",""
"10/30/2018","23:56","218CR0028082","HARASSMENT","HARASSMENT","500 S EMMETT","",""
"10/31/2018","00:30","218CR0028083","SUSPICIOUS ACTIVITY","SUSPICIOUS ACTIVITY","3300 HARRISON AVE","",""
"10/31/2018","00:56","218CR0028084","DISTURBANCE","DISTURBANCE","200 HOWARD","",""
"10/31/2018","01:10","218CR0028085","TRAFFIC","TRAFFIC","I15 MM123 NB","",""
"10/31/2018","01:26","218CR0028086","ATL","ATL","HARRISON AND DEWEY","",""
"10/31/2018","01:37","218CR0028087","HARASSMENT","HARASSMENT","500 S EMMETT","",""
"10/31/2018","01:50","218CR0028088","THEFT","THEFT","700 S MONTANA CAR TUNE AUTO","",""
"10/31/2018","02:25","218CR0028089","CHILD ABUSE","CHILD ABUSE","************","",""
"10/31/2018","03:45","218CR0028090","MEDICAL - EMERGENCY","MEDICAL - EMERGENCY","122000 BROWNS GULCH FLYINGJ","",""
"10/31/2018","03:48","218CR0028091","DISTURBANCE","CRIMINAL CONTEMPT","1370 HARRISON TOWN PUMP","ARREST(s) MADE",""
"10/31/2018","06:22","218CR0028092","T/S","T/S","MERCURY ST AND IDAHO ST","",""
"10/31/2018","06:25","218CR0028093","BURGLARY","BURGLARY","830 W COPPER","",""
"10/31/2018","06:31","218CR0028094","ATL","ATL","MONTANA AND ROWE RD","",""
"10/31/2018","07:02","218CR0028095","UNKNOWN PROBLEM","UNKNOWN PROBLEM","SILVER BOW HOMES","",""
"10/31/2018","07:21","218CR0028096","T/S","T/S @ WASHINGTON AND GRANITE","WASHINGTON AND GRANITE","",""
"10/31/2018","07:48","218CR0028097","SUSPICIOUS ACTIVITY","SUSPICIOUS ACTIVITY","BROADWAY AND MAIN","",""
"10/31/2018","08:06","218CR0028099","THEFT","THEFT","927 S COLORADO","",""
 

BSB police reports ending October 30, 2018

"10/29/2018","00:06","218CR0027862","ILLEGAL SHOOTING","CRIMINAL MISCHIEF","900 BROWNS GULCH RD","",""
"10/29/2018","00:34","218CR0027863","T/S","T/S","COBBAN AND HARRISON","",""
"10/29/2018","01:22","218CR0027864","ASSIST OTHER AGENCY","ASSIST OTHER AGENCY","AIRPORT/BERT MOONEY","",""
"10/29/2018","01:26","218CR0027865","T/S","T/S","WOOLMAN AND EXCELSIOR","",""
"10/29/2018","01:54","218CR0027866","THEFT","THEFT","508 SILVERBOW HOMES","",""
"10/29/2018","02:52","218CR0027867","SUSPICIOUS ACTIVITY","SUSPICIOUS ACTIVITY","1000 BLK W COPPER","",""
"10/29/2018","02:55","218CR0027868","ALARM - MEDICAL","ALARM - MEDICAL","************","",""
"10/29/2018","02:55","218CR0027869","UNWANTED PERSON","UNWANTED PERSON","************","",""
"10/29/2018","03:26","218CR0027870","CITIZEN AID","CITIZEN AID","1506 SILVERBOW HOMES","",""
"10/29/2018","04:27","218CR0027871","ALARM - BURGLARY","ALARM - BURGLARY","************","",""
"10/29/2018","04:46","218CR0027872","T/S","T/S","HARRISON AND GEORGE","",""
"10/29/2018","05:44","218CR0027873","ANIMAL COMPLAINT","ANIMAL COMPLAINT","2530 S COLORADO","",""
"10/29/2018","06:36","218CR0027874","FIRE- GAS ODOR","FIRE- GAS ODOR","2400 HARRISON AVE","",""
"10/29/2018","06:58","218CR0027875","ASSIST OTHER AGENCY","ASSIST OTHER AGENCY","2709 MARCIA","",""
"10/29/2018","07:35","218CR0027876","CIVIL PAPER SERVICE","CIVIL PAPER SERVICE","208 N CLARK","",""
"10/29/2018","07:40","218CR0027877","BUSINESS CHECK","BUSINESS CHECK","58 W PARK ST PARKING GARAGE","",""
"10/29/2018","07:49","218CR0027878","CIVIL PAPER SERVICE","CIVIL PAPER SERVICE","2900 ELIZABETH WARREN","",""
"10/29/2018","07:52","218CR0027879","T/S","T/S @ DEWEY AND HARRISON","DEWEY AND HARRISON","",""
"10/29/2018","07:58","218CR0027880","CIVIL PAPER SERVICE","CIVIL PAPER SERVICE","2545 AMHERST ST","",""
"10/29/2018","08:13","218CR0027881","CIVIL PAPER SERVICE","CIVIL PAPER SERVICE","2825 FARRAGUT AVE APT D202","",""
"10/29/2018","08:14","218CR0027882","LED BUSINESS","LED BUSINESS","155 W GRANITE ST","",""
"10/29/2018","08:19","218CR0027883","SUSPICIOUS ACTIVITY","SUSPICIOUS ACTIVITY","QUARTZ AND WESTERN","",""
"10/29/2018","08:50","218CR0027884","CIVIL PAPER SERVICE","CIVIL PAPER SERVICE","525 W MERCURY","",""
"10/29/2018","08:51","218CR0027885","CIVIL PAPER SERVICE","CIVIL PAPER SERVICE","2900 ARGYLE","",""
"10/29/2018","08:53","218CR0027886","CIVIL PAPER SERVICE","CIVIL PAPER SERVICE","3020 QUINCY","",""
"10/29/2018","09:18","218CR0027887","WELFARE CHECK","WELFARE CHECK","667 S IDAHO","",""
"10/29/2018","09:23","218CR0027888","ALARM - FIRE","ALARM - FIRE","1373 SESAME ST","",""
"10/29/2018","09:41","218CR0027889","MEDICAL - EMERGENCY","MEDICAL - EMERGENCY","2700 HARVARD","",""
"10/29/2018","10:02","218CR0027890","T/S","NO LIABILITY INSURANCE IN EFF.","MONTANA AND MERCURY","",""
"10/29/2018","10:07","218CR0027891","ALARM - BURGLARY","ALARM - BURGLARY","************","",""
"10/29/2018","10:19","218CR0027892","CITIZEN AID","CITIZEN AID","3434 SHERIDAN","",""
"10/29/2018","10:26","218CR0027893","JUVENILE MISC","JUVENILE MISC","************","",""
"10/29/2018","11:06","218CR0027895","DETENTION BUSINESS","DETENTION BUSINESS","************","",""
"10/29/2018","11:17","218CR0027896","FRAUD","FRAUD","1911 PRINCETON","",""
"10/29/2018","11:19","218CR0027897","FOUND PROPERTY","FOUND PROPERTY","************","",""
"10/29/2018","12:02","218CR0027898","CITIZEN AID","CITIZEN AID","225 ALASKA ST","",""
"10/29/2018","12:06","218CR0027899","FIRE- GAS ODOR","FIRE- GAS ODOR","35 B PENNY LANE","",""
"10/29/2018","12:34","218CR0027900","CIVIL PAPER SERVICE","CIVIL PAPER SERVICE","3883 HARRISON/MILE HIGH DODGE","",""
"10/29/2018","12:39","218CR0027901","HARASSMENT","HARASSMENT","225 ALASKA ST","",""
"10/29/2018","12:42","218CR0027902","THEFT","THEFT, SHOPLIFT","1839 HARRISON","",""
"10/29/2018","12:48","218CR0027903","JUVENILE MISC","JUVENILE MISC","************","",""
"10/29/2018","12:59","218CR0027904","WANTED PERSON","WANTED PERSON","************","",""
"10/29/2018","13:02","218CR0027905","SUSPICIOUS ACTIVITY","SUSPICIOUS ACTIVITY","400 BLK N EXCELSIOR","",""
"10/29/2018","13:08","218CR0027906","T/S","T/S","200 BLK S WASHINGTON ST","",""
"10/29/2018","13:19","218CR0027907","SUSPICIOUS ACTIVITY","SUSPICIOUS ACTIVITY","CASEY ST AND DELAWARE ST","",""
"10/29/2018","13:22","218CR0027908","SUICIDE ATTEMPT/THREAT","SUICIDE ATTEMPT/THREAT","************","",""
"10/29/2018","13:28","218CR0027909","JUVENILE MISC","JUVENILE MISC","************","",""
"10/29/2018","13:38","218CR0027910","FRAUD","DECEPTIVE PRACT - CREDIT CARD","PO BOX 147","",""
"10/29/2018","13:40","218CR0027912","ATL","ATL","BAVARIA // VIENNA","",""
"10/29/2018","13:44","218CR0027913","MEDICAL - EMERGENCY","MEDICAL - EMERGENCY","1335 JOY LANE","",""
"10/29/2018","13:47","218CR0027914","UNWANTED PERSON","UNWANTED PERSON","************","",""
"10/29/2018","13:48","218CR0027915","FIRE- GAS ODOR","FIRE- GAS ODOR","2837 AMHERST","",""
"10/29/2018","13:50","218CR0027916","CITIZEN AID","CITIZEN AID","1324 HARRISON AVE","",""
"10/29/2018","14:03","218CR0027917","FIRE- GAS ODOR","FIRE- GAS ODOR","1711 ELM ST","",""
"10/29/2018","14:06","218CR0027918","LED BUSINESS","LED BUSINESS","2705 GEORGE","",""
"10/29/2018","14:09","218CR0027919","BURGLARY","BURGLARY","109 W PORPHYRY","",""
"10/29/2018","14:09","218CR0027920","DISTURBANCE","DISTURBANCE","303 W QUARTZ","",""
"10/29/2018","14:16","218CR0027921","T/S","T/S @ ","","",""
"10/29/2018","14:36","218CR0027923","SUSPICIOUS ACTIVITY","SUSPICIOUS ACTIVITY","2101 YALE","",""
"10/29/2018","14:36","218CR0027922","T/S","T/S @ PARK AND EXCEL","PARK AND EXCEL","",""
"10/29/2018","14:39","218CR0027924","T/S","T/S @ PARK AND EXCEL","PARK AND EXCEL","",""
"10/29/2018","15:07","218CR0027925","ACCIDENT","ACCIDENT","904 UTAH ST","",""
"10/29/2018","15:13","218CR0027926","INFORMATION ONLY","INFORMATION ONLY","2614 ARGYLE","",""
"10/29/2018","15:16","218CR0027927","WANTED PERSON","ESCAPE","1500 BLK ELM ST","",""
"10/29/2018","15:35","218CR0027928","SUSPICIOUS ACTIVITY","SUSPICIOUS ACTIVITY","647 W GRANITE","",""
"10/29/2018","15:42","218CR0027929","MEDICAL - EMERGENCY","MEDICAL - EMERGENCY","106 W BROADWAY ST","",""
"10/29/2018","16:09","218CR0027930","ALL OTHER","ALL OTHER","155 W QUARTZ","",""
"10/29/2018","16:21","218CR0027931","ABANDONED VEHICLE","ABANDONED VEHICLE","2002 PINE ST","",""
"10/29/2018","16:38","218CR0027932","FIRE- GAS ODOR","FIRE- GAS ODOR","1111 A STREET","",""
"10/29/2018","17:28","218CR0027933","ASSIST OTHER AGENCY","ASSIST OTHER AGENCY","647 W GRANITE","",""
"10/29/2018","18:47","218CR0027934","DRUGS","POSSESSION OF DANGEROUS DRUGS","155 W QUARTZ","",""
"10/29/2018","19:01","218CR0027936","ALL OTHER","ALL OTHER","400 S CLARK ST","",""
"10/29/2018","19:01","218CR0027937","SUSPICIOUS ACTIVITY","SUSPICIOUS ACTIVITY","MISSOULA AND MONTANA","",""
"10/29/2018","19:11","218CR0027938","BUSINESS CHECK","BUSINESS CHECK","58 W PARK ST PARKING GARAGE","",""
"10/29/2018","19:33","218CR0027939","SUSPICIOUS ACTIVITY","SUSPICIOUS ACTIVITY","3901 HARRISON AVE","",""
"10/29/2018","19:38","218CR0027940","FIRE - STRUCTURE","FIRE - STRUCTURE","401 W GRANITE","",""
"10/29/2018","19:41","218CR0027941","ACCIDENT","ACCIDENT","1301 HARRISON AVE/STOKES","",""
"10/29/2018","19:57","218CR0027942","THEFT","THEFT, SHOPLIFT","3901 HARRISON","",""
"10/29/2018","20:16","218CR0027943","ASSIST OTHER AGENCY","ASSIST OTHER AGENCY","I90 MM 234 EBND","",""
"10/29/2018","20:33","218CR0027944","DISTURBANCE","DISTURBANCE","401 SILVERBOW HOMES","",""
"10/29/2018","20:40","218CR0027945","ALL OTHER","ALL OTHER","318 S EXCELSIOR","",""
"10/29/2018","21:10","218CR0027946","SUSPICIOUS ACTIVITY","AGGRAVATED BURGLARY","1914 TEXAS","",""
"10/29/2018","21:18","218CR0027947","ASSIST OTHER AGENCY","ASSIST OTHER AGENCY","I90 MM 234 END","",""
"10/29/2018","21:37","218CR0027948","THEFT","THEFT, SHOPLIFT","1370 HARRISON AVE","",""
"10/29/2018","22:45","218CR0027949","ATL","ATL","3000 BLK HARRISON","",""
"10/29/2018","23:03","218CR0027950","MEDICAL - EMERGENCY","MEDICAL - EMERGENCY","1718 YALE","",""
"10/29/2018","23:21","218CR0027951","UNWANTED PERSON","UNWANTED PERSON","************","",""
"10/29/2018","23:34","218CR0027952","SUSPICIOUS ACTIVITY","SUSPICIOUS ACTIVITY","MEADOWLARK AND WYNNE","",""
"10/29/2018","23:55","218CR0027953","SUSPICIOUS ACTIVITY","NO LIABILITY INSURANCE IN EFF.","HARRISON AVE AND HOLMES AVE","",""
"10/30/2018","00:13","218CR0027954","SUSPICIOUS ACTIVITY","BURGLARY, NON-RESIDENCE","1730 LONGFELLOW","ARREST(s) MADE",""
"10/30/2018","01:00","218CR0027955","SUSPICIOUS ACTIVITY","CRIMINAL CONTEMPT","GOLD AND MAIN ST","ARREST(s) MADE",""
"10/30/2018","01:08","218CR0027956","SUSPICIOUS ACTIVITY","SUSPICIOUS ACTIVITY","226 E 2ND","",""
"10/30/2018","01:42","218CR0027957","STOLEN VEHICLE","MOTOR VEHICLE THEFT","500 BLK S MAIN","",""
"10/30/2018","01:45","218CR0027958","SUSPICIOUS ACTIVITY","SUSPICIOUS ACTIVITY","3311 BURLINGTON","",""
"10/30/2018","02:05","218CR0027959","T/S","FLEEING FROM/ELUDING POLICE","PAXSON AND MEADOLARK","",""
"10/30/2018","03:05","218CR0027960","T/S","T/S","MEADOWLARK AND WESTERN BLVD","",""
"10/30/2018","03:15","218CR0027961","SUSPICIOUS ACTIVITY","SUSPICIOUS ACTIVITY","1000 GRIZZLY TR TOWN PUMP","",""
"10/30/2018","03:36","218CR0027962","SUSPICIOUS ACTIVITY","SUSPICIOUS ACTIVITY","HOLMES AVE AND ARIZONA ST","",""
"10/30/2018","03:55","218CR0027963","SUSPICIOUS ACTIVITY","SUSPICIOUS ACTIVITY","COPPERCITY CASINO/1285 HARRISO","",""
"10/30/2018","04:01","218CR0027964","SUSPICIOUS ACTIVITY","SUSPICIOUS ACTIVITY","2305 CONTINENTAL DR TOWN PUMP","",""
"10/30/2018","04:11","218CR0027965","THEFT","BURGLARY, RESIDENCE","1624 LAFAYETTE","ARREST(s) MADE",""
"10/30/2018","04:31","218CR0027966","SUSPICIOUS ACTIVITY","SUSPICIOUS ACTIVITY","2711 HARRISON AVE TOWN PUMP","",""
"10/30/2018","04:50","218CR0027967","SUSPICIOUS ACTIVITY","SUSPICIOUS ACTIVITY","3745 HARRISON BUFFALO WILD WIN","",""
"10/30/2018","05:29","218CR0027968","T/S","T/S @ ATLANTIC AND FIRST","ATLANTIC AND FIRST","",""
"10/30/2018","05:38","218CR0027969","SUSPICIOUS ACTIVITY","SUSPICIOUS ACTIVITY","3901 HARRISON WALMART","",""
"10/30/2018","06:16","218CR0027970","STOLEN VEHICLE","STOLEN VEHICLE","3347 BURLINGTON AVE","",""
"10/30/2018","07:16","218CR0027971","T/S","T/S @ ALASKA ST AND COPPER ST","ALASKA ST AND COPPER ST","",""
 

Subcategories

Friday the 14th. Affiliate Marketing.
Copyright 2012

©